Вернуться в каталог

COSMOS 1858

АктивенНавигацияLEO
NORAD 18119·PAYLOAD·🇷🇺 Russia

Запущен Jun 16, 1987 с Plesetsk Cosmodrome

Loading…

Ближайшие Пролёты (ближайшие 24 часа)

TLE

СвежийSource: Space-Track

Эпоха: Sep 14, 2026, 14:58 UTC

1 18119U 87051G   26257.62416927  .00000004  00000-0  12435-3 0  9992
2 18119  74.0068 328.3956 0049096 320.4794 208.4192 12.56042275799511

Отслеживайте COSMOS 1858 в реальном времени с AllMySat

Download on the App Store